STARLINK-1847 (46739 NORAD) Tracking and Keplerian Element Data

This shows tracking and keplerian element data for the satellite.

Feedback or suggestion? Click here.




ElementValue
Catalog46739
NameSTARLINK-1847
Epoch Orbit181
Epoch Day330.91667824
Epoch Year2020
RAAN2.0049
Inclination53.0548
Eccentricity0.0001284
Argument of Perigee59.7942
Mean Anonmoly184.5923
Mean Motion15.62770861
Decay Rate0.00048401
L11 46739U 20074A 20330.91667824 .00048401 00000-0 53092-3 0 9992
L22 46739 53.0548 2.0049 0001284 59.7942 184.5923 15.62770861 1817

Live tracking and technical data element details for STARLINK-1847 (NORAD 46739). STARLINK-1847 can be tracked NOW for your location showing map with azimuth and elevation plus other details from your city location.

Track the satellite on the map from your city or location and see movement details for azimuth, elevation, latitude, longitude, range, height, and movement on the map or in text.







IsCatalogInMostPopularTable: catalog: 46739, numindb: 5
Update: records affected: 1



GetName: 46739 STARLINK-1847

Hit Count: updated at: Thu, 26 Nov 2020 17:40:05 GMT